This demonstration page uses our WeatherBlox Daily Observations layout. Learn more.

Left ArrowRight Arrow

Hourly Observations for April 9, 2019

Temp ( °F °C ) Dew Point ( °F °C ) Humidity (%) Winds ( mph kmh ) Pressure ( in mb ) Visibility ( mi km ) Precip ( " mm )
12:15 am 00:15 Clear 51 10.7 42 5.5 71 71 N N/A 30.01 1016 N/A N/A
12:35 am 00:35 Clear 53 11.8 41 5.1 64 64 ENE 6 9 30.00 1016 N/A N/A
12:55 am 00:55 Clear 52 11.1 41 5 66 66 NE 5 7 30.01 1016 N/A N/A
1:15 am 01:15 Clear 49 9.2 40 4.6 73 73 N N/A 30.03 1017 N/A N/A
1:35 am 01:35 Clear 49 9.2 41 4.8 74 74 N N/A 30.02 1017 N/A N/A
1:55 am 01:55 Clear 47 8.2 41 4.9 80 80 N N/A 30.03 1017 N/A N/A
2:15 am 02:15 Clear 48 8.9 41 5.2 78 78 N N/A 30.02 1017 N/A N/A
2:35 am 02:35 Clear 47 8.1 40 4.7 79 79 N 6 9 30.02 1017 N/A N/A
2:55 am 02:55 Clear 45 7 39 4 81 81 NNE 3 6 30.02 1017 N/A N/A
3:15 am 03:15 Clear 46 7.6 40 4.2 79 79 NNW 3 6 30.02 1017 N/A N/A
3:35 am 03:35 Clear 44 6.9 39 4.1 83 83 N N/A 30.02 1017 N/A N/A
3:55 am 03:55 Clear 44 6.5 39 4 84 84 N N/A 30.02 1017 N/A N/A
4:15 am 04:15 Clear 43 6 38 3.4 84 84 N N/A 30.03 1017 N/A N/A
4:35 am 04:35 undefined 42 5.8 38 3.6 86 86 N N/A 30.02 1017 N/A N/A
4:55 am 04:55 undefined 44 6.5 40 4.4 87 87 N N/A 30.01 1016 N/A N/A
5:15 am 05:15 undefined 42 5.3 38 3.6 89 89 N N/A 30.03 1017 N/A N/A
5:35 am 05:35 undefined 42 5.7 39 3.9 88 88 N N/A 30.01 1016 N/A N/A
5:55 am 05:55 undefined 41 5 38 3.3 89 89 N N/A 30.01 1016 N/A N/A
6:15 am 06:15 undefined 41 5 38 3.5 90 90 N N/A 30.01 1016 N/A N/A
6:35 am 06:35 undefined 41 4.8 37 3 88 88 W 3 6 30.02 1017 N/A N/A
6:55 am 06:55 undefined 41 5.2 38 3.5 89 89 W 5 7 30.02 1016 N/A N/A
7:15 am 07:15 undefined 41 5 38 3.3 89 89 SW 3 6 30.02 1017 N/A N/A
7:35 am 07:35 undefined 41 5.1 38 3.6 90 90 N N/A 30.01 1016 N/A N/A
7:55 am 07:55 undefined 42 5.6 39 4.1 90 90 N N/A 29.99 1016 N/A N/A
8:15 am 08:15 undefined 45 7.4 42 5.6 88 88 N N/A 29.98 1015 N/A N/A
8:35 am 08:35 undefined 46 7.5 42 5.5 87 87 N N/A 29.97 1015 N/A N/A
8:55 am 08:55 undefined 47 8.3 43 6 86 86 ENE 3 6 29.95 1014 N/A N/A
9:15 am 09:15 Sunny 51 10.7 43 6.1 73 73 ESE 5 7 29.92 1013 N/A N/A
9:35 am 09:35 Sunny 55 13 42 5.4 60 60 ESE 7 11 29.89 1012 N/A N/A
9:55 am 09:55 Sunny 57 13.7 42 5.6 58 58 ESE 10 17 29.88 1012 N/A N/A
10:15 am 10:15 Sunny 58 14.6 44 6.4 58 58 SE 10 17 29.86 1011 N/A N/A
10:35 am 10:35 Sunny 61 16.3 44 6.4 52 52 SE 12 19 29.83 1010 N/A N/A
10:55 am 10:55 Sunny 63 17 41 5.1 46 46 SE 16 26 29.83 1010 N/A N/A
11:15 am 11:15 Sunny 65 18.2 42 5.8 44 44 SE 15 24 29.81 1009 N/A N/A
11:35 am 11:35 Sunny 66 19.1 43 5.9 42 42 SE 14 22 29.78 1008 N/A N/A
11:55 am 11:55 Sunny 69 20.6 42 5.6 38 38 SSE 16 26 29.76 1008 N/A N/A
12:15 pm 12:15 Sunny 70 21.2 43 5.9 37 37 SSE 17 28 29.74 1007 N/A N/A
12:35 pm 12:35 Sunny 70 20.9 42 5.8 37 37 SSE 16 26 29.73 1007 N/A N/A
12:55 pm 12:55 Sunny 71 21.8 43 6 36 36 SSE 16 26 29.72 1006 N/A N/A
1:15 pm 13:15 Sunny 71 21.8 43 5.9 36 36 SSE 16 26 29.69 1005 N/A N/A
1:35 pm 13:35 Sunny 73 22.6 44 6.4 35 35 SSE 16 26 29.67 1005 N/A N/A
1:55 pm 13:55 Sunny 74 23.4 44 6.7 34 34 SSE 20 31 29.64 1004 N/A N/A
2:15 pm 14:15 Sunny 74 23.5 44 6.8 34 34 SE 15 24 29.63 1003 N/A N/A
2:35 pm 14:35 Sunny 76 24.3 45 7.1 33 33 SSE 18 30 29.62 1003 N/A N/A
2:55 pm 14:55 Sunny 75 24 45 7.1 34 34 SSE 17 28 29.61 1003 N/A N/A
3:15 pm 15:15 Sunny 75 24 45 7 34 34 SSE 17 28 29.59 1002 N/A N/A
3:35 pm 15:35 Sunny 76 24.4 46 7.5 34 34 SE 18 30 29.58 1002 N/A N/A
3:55 pm 15:55 Sunny 76 24.2 45 7.3 34 34 SSE 16 26 29.57 1001 N/A N/A
4:15 pm 16:15 Sunny 76 24.2 45 7.3 34 34 SSE 17 28 29.56 1001 N/A N/A
4:35 pm 16:35 Sunny 75 24 46 7.6 35 35 SE 17 28 29.55 1001 N/A N/A
4:55 pm 16:55 Sunny 75 24 46 7.6 35 35 SE 16 26 29.54 1000 N/A N/A
5:15 pm 17:15 Sunny 75 24 46 7.9 36 36 SE 13 20 29.54 1000 N/A N/A
5:35 pm 17:35 Sunny 76 24.3 46 7.8 35 35 SSE 14 22 29.54 1000 N/A N/A
5:55 pm 17:55 Sunny 75 23.7 46 7.9 36 36 SE 12 19 29.52 1000 N/A N/A
6:15 pm 18:15 Sunny 74 23.3 47 8.6 39 39 SE 9 15 29.53 1000 N/A N/A
6:35 pm 18:35 Sunny 73 22.7 48 9 42 42 ESE 9 15 29.52 1000 N/A N/A
6:55 pm 18:55 Sunny 73 22.5 49 9.6 44 44 ESE 10 17 29.52 1000 N/A N/A
7:15 pm 19:15 Sunny 72 22 50 10 47 47 ESE 12 19 29.53 1000 N/A N/A
7:35 pm 19:35 Sunny 70 21.2 50 10.2 50 50 E 10 17 29.53 1000 N/A N/A
7:55 pm 19:55 Sunny 69 20.7 50 10.2 51 51 E 12 19 29.53 1000 N/A N/A
8:15 pm 20:15 Clear 68 20 51 10.3 54 54 E 13 20 29.52 1000 N/A N/A
8:35 pm 20:35 Clear 67 19.2 51 10.3 57 57 E 14 22 29.53 1000 N/A N/A
8:55 pm 20:55 Clear 67 19.2 51 10.3 57 57 E 16 26 29.53 1000 N/A N/A
9:15 pm 21:15 Clear 65 18.6 50 10.2 58 58 E 14 22 29.54 1000 N/A N/A
9:35 pm 21:35 Clear 65 18.3 50 10.2 59 59 E 15 24 29.54 1000 N/A N/A
9:55 pm 21:55 Clear 65 18.1 50 10.2 60 60 E 17 28 29.54 1000 N/A N/A
10:15 pm 22:15 Clear 64 18 50 10.1 60 60 E 17 28 29.54 1000 N/A N/A
10:35 pm 22:35 Clear 64 17.6 50 9.8 60 60 E 17 28 29.53 1000 N/A N/A
10:55 pm 22:55 Clear 63 17.3 49 9.5 60 60 E 18 30 29.54 1000 N/A N/A
11:15 pm 23:15 Clear 62 16.7 49 9.3 62 62 E 18 30 29.54 1000 N/A N/A
11:35 pm 23:35 Clear 61 16.2 49 9.2 63 63 E 16 26 29.54 1000 N/A N/A
11:55 pm 23:55 Clear 60 15.8 48 9 64 64 E 15 24 29.54 1000 N/A N/A

Powered by AerisWeather